Rogue Valley International Medford Airport
KMFR : now visible

Airfield :











YOU CAN JOIN US ON...

 
LOGIN :

Register | Disclaimer

   EN    FR    IT 

 









Legend :    VFR   Marginal VFR   IFR   Intensive IFR   Very Intensive IFR
Visi :
Ceiling :
>= 8 km
>= 3000ft
5 to 8 km
1000 to 3000 ft
1500m to 5 km
500 to 1000 ft
800 to 1500m
200 to 500 ft
< 800m
< 200 ft
Symbols :   Thunderstorms  Fog  Heavy snow  Heavy precipitations  Wind > 20 kt






- Airport Elevation : 1335 ft
- IATA code : MFR


KMFR - Rogue Valley International Medford

CURRENT METAR :
  • 100553Z AUTO 15004KT 10SM CLR 15/02 A2999 RMK AO2 SLP150 T01500022 10278 20144 51021

EXPIRED METARs :
  • 100453Z AUTO 00000KT 10SM CLR 18/01 A2999 RMK AO2 SLP151 T01780011
  • 100353Z AUTO 32005KT 10SM CLR 20/02 A2996 RMK AO2 SLP141 T02000017

TAF KMFR
Valid from the 10 at 06:00 until the 11 at 06:00 UTC


100527Z 1006/1106 32005KT P6SM SKC



MET'MAP, your aeronautical weather chart ! - Copyright ORBIFLY December 2007 - Disclaimer

ORBIFLY MET'MAP TEAM :

Programming & Development : Alexandra Zaïnal
Concept & original design : Baudouin d'Aumeries
Assistance for programming : Marc-Olivier Méhu
Technical & hardware support : Manuel Goepfert

Contact : metmap@orbifly.com




SOURCES & CREDITS :

   NOAA       Earth
Advisory